[[{"header":{"parameterUnit":"m.s-1","parameterCategory":1,"la1":30.2991,"la2":30.254,"lo1":-89.0895,"lo2":-89.0444,"dy":0.0017,"dx":0.0017,"nx":28,"ny":28,"refTime":"2024-12-17T09:00:00:Z","depth":0,"parameterNumber":2,"parameterNumberName":"U-component_of_WINDS"},"data":[0,0,0,0,0,0,0,0,0,0,0,0,0,0,0,0,0,0,0,0,0,0,0,0,0,0,0,0,0,0,0,0,0,0,0,0,0,0,0,0,0,0,0,0,0,0,0,0,0,0,0,0,0,0,0,0,0,0,2.3485,2.3485,0,2.3509,2.351,2.351,2.345,2.3448,2.3446,2.3445,2.3472,2.3474,2.3477,0,0,0,0,0,0,0,0,0,0,0,0,0,2.3389,2.3391,2.3485,2.3485,2.3485,2.3509,2.351,2.351,2.3451,2.3448,2.3446,2.3444,2.3471,2.3474,2.3477,0,0,0,0,0,0,0,0,0,0,0,0,0,2.3424,2.3391,2.3485,2.3458,2.3456,2.3509,2.351,2.351,2.3451,2.3448,2.3445,2.3443,2.347,2.3474,2.3477,2.3557,0,0,2.3489,2.349,0,0,0,0,0,0,0,0,2.3422,2.3427,2.3462,2.346,2.3458,2.3474,2.3486,2.3526,2.3452,2.3453,2.3445,2.3441,2.3475,2.3478,2.3489,2.3558,2.356,2.3489,2.3491,2.3493,2.3494,0,0,0,0,0,0,0,2.3419,2.3426,2.3494,2.3463,2.346,2.3446,2.3448,2.3493,2.348,2.3453,2.3449,2.3452,2.3473,2.3485,2.3489,2.356,2.3489,2.3492,2.3494,2.3496,2.3699,2.3702,0,0,0,0,0,0,2.342,2.3424,2.3494,2.3495,2.3432,2.345,2.3452,2.3472,2.3479,2.3477,2.3455,2.3449,2.348,2.3485,2.349,2.3587,2.3493,2.3496,2.3498,2.3696,2.37,2.3703,0,0,0,0,0,0,2.3418,2.3427,2.3493,2.3459,2.3466,2.3455,2.3477,2.3474,2.3486,2.348,2.3478,2.3469,2.3478,2.3485,2.3541,2.3587,2.3498,2.3501,2.3692,2.3697,2.3702,2.3779,0,0,0,0,0,0,2.3416,2.3426,2.3456,2.346,2.3468,2.3544,2.348,2.3476,2.3492,2.3486,2.3494,2.3492,2.3477,2.3536,2.3545,2.359,2.3504,2.3688,2.3695,2.37,2.3773,2.3786,2.3797,0,0,0,0,0,2.3412,2.3477,2.3458,2.3467,2.3505,2.3546,2.3551,2.3531,2.3496,2.3527,2.3523,2.3492,2.3579,2.3542,2.3552,2.3599,2.3685,2.3693,2.37,2.3767,2.3783,2.3797,0,0,0,0,0,0,2.3479,2.3477,2.3456,2.3523,2.3535,2.3536,2.3574,2.3549,2.3572,2.3565,2.3539,2.3542,2.3604,2.3606,2.3565,2.3678,2.3627,2.3636,2.3675,2.369,2.3702,2.3702,2.3507,0,0,0,0,0,2.3501,2.3534,2.3531,2.359,2.3598,2.3585,2.3602,2.3586,2.3598,2.3603,2.3603,2.3617,2.3647,2.3668,2.3696,2.3772,2.3774,2.3809,2.3821,2.3831,2.3841,2.3884,2.39,2.3727,2.3727,2.3727,0,0,2.3548,2.3551,2.3574,2.3604,2.3611,2.3648,2.359,2.363,2.3657,2.3609,2.3664,2.3664,2.3678,2.3745,2.3775,2.3749,2.3889,2.384,2.3848,2.3852,2.3893,2.3909,2.3924,2.3732,2.3731,2.373,0,0,2.3653,2.3657,2.3709,2.3718,2.373,2.3721,2.3734,2.3738,2.3737,2.3791,2.3757,2.3789,2.3841,2.3853,2.3866,2.3976,2.395,2.3986,2.4052,2.4094,2.4108,2.412,2.4163,2.4178,2.3994,2.3995,2.3995,0,2.371,2.3763,2.3739,2.3782,2.3798,2.3755,2.3808,2.3818,2.3839,2.3851,2.3822,2.3888,2.3894,2.3965,2.3992,2.4003,2.4018,2.3986,2.4108,2.412,2.4131,2.4171,2.4187,2.3999,2.3999,2.3998,2.3998,0,2.3834,2.3871,2.3912,2.3934,2.3953,2.4001,2.3985,2.4008,2.399,2.3985,2.4042,2.4047,2.4076,2.4091,2.4073,2.416,2.4145,2.4112,2.406,2.4152,2.419,2.4205,2.4006,2.4004,2.4003,2.4002,0,0,2.3984,2.3991,2.4007,2.4017,2.4028,2.4057,2.4103,2.4131,2.4153,2.4168,2.4209,2.4255,2.4225,2.424,2.4223,2.426,2.4351,2.4222,2.4222,2.4249,2.4451,2.4478,2.4496,2.4332,2.4334,2.4337,2.4451,0,2.409,2.417,2.415,2.423,2.4266,2.4226,2.4267,2.4279,2.4275,2.4305,2.43,2.4335,2.4291,2.43,2.4334,2.4332,2.4391,2.4323,2.4372,2.4374,2.4373,2.4515,2.4544,2.4651,2.4465,2.4467,2.4469,0,2.4225,2.4247,2.4331,2.4337,2.4351,2.4389,2.4414,2.4442,2.4455,2.445,2.4467,2.4444,2.4491,2.4437,2.4504,2.4458,2.4476,2.4478,2.4482,2.4489,2.4429,2.4529,2.4684,2.4702,2.4491,2.4489,2.4488,0,2.433,2.438,2.4437,2.4447,2.4455,2.4482,2.4487,2.4497,2.4516,2.4538,2.4551,2.4578,2.4594,2.4616,2.4601,2.4562,2.4672,2.4615,2.4671,2.4672,2.4699,2.4698,2.4863,2.4704,2.4704,2.4704,2.4704,0,2.4453,2.4507,2.4485,2.4521,2.458,2.4556,2.4616,2.4616,2.4626,2.4662,2.4628,2.4662,2.4639,2.4672,2.466,2.472,2.4726,2.4725,2.4722,2.473,2.4731,2.4744,2.4738,2.4708,2.4707,2.4706,2.4706,0,2.4582,2.4569,2.4629,2.4632,2.4634,2.4678,2.4681,2.4715,2.4708,2.4754,2.4764,2.4754,2.4791,2.4778,2.4817,2.481,2.4886,2.4871,2.4882,2.488,2.4938,2.4934,2.512,2.5145,2.4967,2.4969,2.497,0,2.4663,2.4704,2.4711,2.4733,2.474,2.4775,2.4794,2.4772,2.4794,2.4812,2.4845,2.4879,2.4906,2.4968,2.4965,2.4996,2.4984,2.5047,2.4988,2.4996,2.4989,2.4989,2.4994,2.506,2.5062,2.5064,2.5065,0,2.481,2.4802,2.4831,2.4858,2.4883,2.4903,2.492,2.494,2.4919,2.4946,2.4983,2.5004,2.5045,2.5081,2.5108,2.5114,2.5088,2.5083,2.5098,2.5109,2.5115,2.5116,2.4918,2.508,2.5078,2.5077,2.5076,2.5076,2.4921,2.4956,2.4967,2.5001,2.5012,2.5029,2.5062,2.5059,2.509,2.5122,2.5107,2.5152,2.5164,2.5199,2.5209,2.5244,2.522,2.5241,2.5247,2.5254,2.5263,2.5106,2.5249,2.5248,2.5248,2.5247,2.5247,0,2.5069,2.5074,2.5105,2.5131,2.5159,2.5129,2.5147,2.5172,2.5212,2.5226,2.5253,2.5298,2.5332,2.5332,2.5364,2.5393,2.5382,2.5403,2.5402,2.5405,2.5281,2.5266,2.5411,2.5411,2.5411,2.5411,2.5411,2.5411,2.515,2.5209,2.5202,2.5267,2.5271,2.5315,2.5328,2.5345,2.5356,2.5408,2.5436,2.5435,2.5444,2.5477,2.5508,2.5507,2.5522,2.5549,2.5544,2.5429,2.5413,2.5397,2.5384,2.5551,2.5551,2.5665,2.5666,2.5667]},{"header":{"parameterUnit":"m.s-1","parameterCategory":1,"la1":30.2991,"la2":30.254,"lo1":-89.0895,"lo2":-89.0444,"dy":0.0017,"dx":0.0017,"nx":28,"ny":28,"refTime":"2024-12-17T09:00:00:Z","depth":0,"parameterNumber":3,"parameterNumberName":"V-component_of_WINDS"},"data":[0,0,0,0,0,0,0,0,0,0,0,0,0,0,0,0,0,0,0,0,0,0,0,0,0,0,0,0,0,0,0,0,0,0,0,0,0,0,0,0,0,0,0,0,0,0,0,0,0,0,0,0,0,0,0,0,0,0,-2.7614,-2.7615,0,-2.7625,-2.7625,-2.7625,-2.7654,-2.7654,-2.7655,-2.7656,-2.7665,-2.7665,-2.7665,0,0,0,0,0,0,0,0,0,0,0,0,0,-2.762,-2.762,-2.7614,-2.7615,-2.7615,-2.7625,-2.7625,-2.7625,-2.7654,-2.7654,-2.7655,-2.7656,-2.7665,-2.7665,-2.7665,0,0,0,0,0,0,0,0,0,0,0,0,0,-2.7623,-2.762,-2.7614,-2.763,-2.7632,-2.7625,-2.7625,-2.7625,-2.7653,-2.7654,-2.7655,-2.7656,-2.7665,-2.7665,-2.7665,-2.7643,0,0,-2.7663,-2.7663,0,0,0,0,0,0,0,0,-2.7623,-2.7623,-2.7628,-2.7629,-2.7631,-2.7639,-2.7631,-2.7631,-2.7653,-2.7645,-2.7656,-2.7657,-2.7656,-2.7656,-2.7656,-2.7644,-2.7644,-2.7663,-2.7663,-2.7663,-2.7662,0,0,0,0,0,0,0,-2.7622,-2.7622,-2.7619,-2.7628,-2.763,-2.7637,-2.7638,-2.7631,-2.7645,-2.7646,-2.7648,-2.7649,-2.7657,-2.7656,-2.7656,-2.7644,-2.7663,-2.7663,-2.7662,-2.7662,-2.7617,-2.7616,0,0,0,0,0,0,-2.762,-2.7622,-2.7618,-2.7619,-2.7629,-2.7636,-2.7638,-2.7635,-2.7645,-2.7648,-2.7648,-2.765,-2.7657,-2.7657,-2.7657,-2.7634,-2.7663,-2.7662,-2.7662,-2.7618,-2.7617,-2.7616,0,0,0,0,0,0,-2.762,-2.7619,-2.7618,-2.7621,-2.7621,-2.7635,-2.7632,-2.7635,-2.7635,-2.7647,-2.765,-2.7645,-2.7657,-2.7658,-2.7647,-2.7635,-2.7662,-2.7661,-2.7619,-2.7618,-2.7617,-2.7587,0,0,0,0,0,0,-2.762,-2.7619,-2.7611,-2.7621,-2.7621,-2.7607,-2.7631,-2.7635,-2.7634,-2.7637,-2.7645,-2.7647,-2.7658,-2.7648,-2.7646,-2.7634,-2.7661,-2.762,-2.7619,-2.7617,-2.7589,-2.7585,-2.7581,0,0,0,0,0,-2.762,-2.7601,-2.761,-2.7609,-2.7611,-2.7606,-2.7607,-2.762,-2.7633,-2.7625,-2.7633,-2.7647,-2.7636,-2.7646,-2.7645,-2.7633,-2.7621,-2.7619,-2.7617,-2.7591,-2.7586,-2.7581,0,0,0,0,0,0,-2.7588,-2.7603,-2.7613,-2.7596,-2.76,-2.7611,-2.7601,-2.7614,-2.7614,-2.7616,-2.7633,-2.7635,-2.7622,-2.7626,-2.7637,-2.7614,-2.7631,-2.7629,-2.7611,-2.7607,-2.7603,-2.7602,-2.7661,0,0,0,0,0,-2.758,-2.7575,-2.7588,-2.7572,-2.7574,-2.7587,-2.7586,-2.7596,-2.76,-2.7602,-2.7609,-2.7613,-2.7611,-2.7609,-2.7607,-2.759,-2.7593,-2.7581,-2.7577,-2.7574,-2.7572,-2.7565,-2.756,-2.7609,-2.7609,-2.7609,0,0,-2.7561,-2.7568,-2.7564,-2.7566,-2.757,-2.7565,-2.7588,-2.7581,-2.7578,-2.7601,-2.7592,-2.7598,-2.7603,-2.7589,-2.7584,-2.7593,-2.7559,-2.7571,-2.7569,-2.7568,-2.7562,-2.7558,-2.7554,-2.7608,-2.7608,-2.7608,0,0,-2.7525,-2.753,-2.7518,-2.7523,-2.7529,-2.7539,-2.7536,-2.7546,-2.7551,-2.7542,-2.756,-2.7556,-2.7552,-2.7556,-2.7557,-2.7525,-2.7538,-2.7524,-2.7503,-2.7496,-2.7493,-2.7489,-2.7479,-2.7475,-2.7522,-2.7522,-2.7522,0,-2.7501,-2.7495,-2.7511,-2.7504,-2.7505,-2.7526,-2.7515,-2.7519,-2.7524,-2.7524,-2.7534,-2.7531,-2.7536,-2.7524,-2.7517,-2.7517,-2.7515,-2.7523,-2.7492,-2.7489,-2.7486,-2.7477,-2.7473,-2.752,-2.7521,-2.7521,-2.7521,0,-2.7466,-2.7461,-2.7451,-2.7457,-2.7457,-2.7448,-2.7464,-2.7462,-2.7473,-2.7482,-2.7474,-2.7481,-2.7482,-2.748,-2.749,-2.7471,-2.7476,-2.7489,-2.7506,-2.7479,-2.7471,-2.7467,-2.7518,-2.7519,-2.7519,-2.752,0,0,-2.7409,-2.7426,-2.7422,-2.7426,-2.7436,-2.7433,-2.7425,-2.7428,-2.7426,-2.743,-2.7425,-2.7422,-2.7434,-2.7436,-2.7447,-2.7441,-2.7417,-2.7454,-2.7455,-2.7448,-2.7398,-2.7389,-2.7385,-2.7426,-2.7426,-2.7425,-2.7398,0,-2.7376,-2.7365,-2.738,-2.7366,-2.7363,-2.7384,-2.7378,-2.7384,-2.7393,-2.7392,-2.7401,-2.7399,-2.7415,-2.7417,-2.7412,-2.7421,-2.7408,-2.7423,-2.7423,-2.7422,-2.7421,-2.738,-2.737,-2.7344,-2.7395,-2.7395,-2.7394,0,-2.7335,-2.7339,-2.7324,-2.7337,-2.7337,-2.7331,-2.7336,-2.7334,-2.7342,-2.7349,-2.7352,-2.7366,-2.7361,-2.7378,-2.7372,-2.7382,-2.7383,-2.7388,-2.7387,-2.7388,-2.7407,-2.7381,-2.7336,-2.7333,-2.7389,-2.7389,-2.739,0,-2.7297,-2.7297,-2.7289,-2.7292,-2.7307,-2.7303,-2.7309,-2.7317,-2.7318,-2.7322,-2.7324,-2.7327,-2.7328,-2.7331,-2.7345,-2.7356,-2.7338,-2.7356,-2.7344,-2.7344,-2.7339,-2.7339,-2.7295,-2.7339,-2.7339,-2.7339,-2.7339,0,-2.7258,-2.7249,-2.7273,-2.7268,-2.7258,-2.7277,-2.7267,-2.7275,-2.7284,-2.7281,-2.73,-2.7297,-2.7317,-2.7317,-2.7328,-2.7322,-2.7323,-2.7329,-2.7332,-2.7327,-2.7327,-2.7328,-2.733,-2.7338,-2.7338,-2.7338,-2.7339,0,-2.7213,-2.7228,-2.7222,-2.7237,-2.7241,-2.7233,-2.7247,-2.7243,-2.7254,-2.7251,-2.7252,-2.7268,-2.727,-2.7285,-2.7288,-2.7297,-2.7286,-2.7293,-2.7284,-2.7286,-2.7274,-2.7275,-2.723,-2.7225,-2.7271,-2.727,-2.727,0,-2.7188,-2.7182,-2.7197,-2.7197,-2.7203,-2.7202,-2.7204,-2.7223,-2.7224,-2.7234,-2.723,-2.7233,-2.7236,-2.7237,-2.7249,-2.7253,-2.726,-2.7244,-2.7261,-2.7257,-2.7261,-2.7262,-2.7262,-2.724,-2.724,-2.7239,-2.7239,0,-2.7142,-2.7151,-2.7153,-2.7158,-2.716,-2.7165,-2.7171,-2.717,-2.7191,-2.7191,-2.7193,-2.7196,-2.7201,-2.7204,-2.7211,-2.7217,-2.7232,-2.7234,-2.7231,-2.7227,-2.7222,-2.7226,-2.7275,-2.7234,-2.7235,-2.7235,-2.7235,-2.7236,-2.7107,-2.7103,-2.7114,-2.7116,-2.7123,-2.7129,-2.7127,-2.7139,-2.7141,-2.7147,-2.7158,-2.7159,-2.7169,-2.7179,-2.7185,-2.7186,-2.7195,-2.7191,-2.719,-2.7189,-2.7187,-2.7222,-2.7188,-2.7188,-2.7188,-2.7188,-2.7188,0,-2.7063,-2.7072,-2.7074,-2.7082,-2.7085,-2.7099,-2.7107,-2.7108,-2.7109,-2.7118,-2.7121,-2.7124,-2.7128,-2.7142,-2.7147,-2.7146,-2.7153,-2.7147,-2.7147,-2.7149,-2.7179,-2.7181,-2.7141,-2.7141,-2.7141,-2.7141,-2.7141,-2.7141,-2.704,-2.7035,-2.7045,-2.7045,-2.7054,-2.7055,-2.7059,-2.7065,-2.7072,-2.7075,-2.7079,-2.7088,-2.7099,-2.7106,-2.7111,-2.7115,-2.7116,-2.7108,-2.7115,-2.7142,-2.7147,-2.7151,-2.7153,-2.7108,-2.7108,-2.7085,-2.7085,-2.7084]}]]